Year,Month,Day,Hour,Minute,Value (Times are PST for temperature in C)
2016,09,29,00,00,9.60
2016,09,29,00,16,9.20
2016,09,29,00,17,9.20
2016,09,29,00,18,9.20
2016,09,29,00,19,9.20
2016,09,29,00,20,9.20
2016,09,29,00,21,9.20
2016,09,29,00,22,9.30
2016,09,29,00,23,9.30
2016,09,29,00,24,9.30
2016,09,29,00,25,9.30
2016,09,29,00,26,9.30
2016,09,29,00,27,9.30
2016,09,29,00,28,9.40
2016,09,29,00,29,9.40
2016,09,29,00,30,9.40
2016,09,29,00,31,9.40
2016,09,29,00,32,9.40
2016,09,29,00,33,9.30
2016,09,29,00,34,9.30
2016,09,29,00,35,9.30
2016,09,29,00,36,9.30
2016,09,29,00,37,9.30
2016,09,29,00,38,9.30
2016,09,29,00,39,9.30
2016,09,29,00,40,9.30
2016,09,29,00,41,9.20
2016,09,29,00,42,9.20
2016,09,29,00,43,9.20
2016,09,29,00,44,9.20
2016,09,29,00,45,9.10
2016,09,29,00,46,9.10
2016,09,29,00,47,9.00
2016,09,29,00,48,8.90
2016,09,29,00,49,8.90
2016,09,29,00,50,8.80
2016,09,29,00,51,8.80
2016,09,29,00,52,8.70
2016,09,29,00,53,8.70
2016,09,29,00,54,8.70
2016,09,29,00,55,8.70
2016,09,29,00,56,8.70
2016,09,29,00,57,8.60
2016,09,29,00,58,8.60
2016,09,29,00,59,8.60
2016,09,29,01,00,8.70
2016,09,29,01,01,8.70
2016,09,29,01,02,8.70
2016,09,29,01,03,8.70
2016,09,29,01,04,8.70
2016,09,29,01,05,8.70
2016,09,29,01,06,8.70
2016,09,29,01,07,8.60
2016,09,29,01,08,8.60
2016,09,29,01,09,8.60
2016,09,29,01,10,8.60
2016,09,29,01,11,8.60
2016,09,29,01,12,8.60
2016,09,29,01,13,8.60
2016,09,29,01,14,8.70
2016,09,29,01,15,8.70
2016,09,29,01,16,8.70
2016,09,29,01,17,8.70
2016,09,29,01,18,8.70
2016,09,29,01,19,8.70
2016,09,29,01,20,8.70
2016,09,29,01,21,8.70
2016,09,29,01,22,8.70
2016,09,29,01,23,8.70
2016,09,29,01,24,8.70
2016,09,29,01,25,8.70
2016,09,29,01,26,8.70
2016,09,29,01,27,8.80
2016,09,29,01,28,8.80
2016,09,29,01,29,8.80
2016,09,29,01,30,8.70
2016,09,29,01,31,8.70
2016,09,29,01,32,8.60
2016,09,29,01,33,8.50
2016,09,29,01,34,8.40
2016,09,29,01,35,8.40
2016,09,29,01,36,8.30
2016,09,29,01,37,8.30
2016,09,29,01,38,8.20
2016,09,29,01,39,8.20
2016,09,29,01,40,8.20
2016,09,29,01,41,8.20
2016,09,29,01,42,8.20
2016,09,29,01,43,8.20
2016,09,29,01,44,8.20
2016,09,29,01,45,8.20
2016,09,29,01,46,8.20
2016,09,29,01,47,8.20
2016,09,29,01,48,8.10
2016,09,29,01,49,8.10
2016,09,29,01,50,8.10
2016,09,29,01,51,8.10
2016,09,29,01,52,8.10
2016,09,29,01,53,8.10
2016,09,29,01,54,8.10
2016,09,29,01,55,8.10
2016,09,29,01,56,8.10
2016,09,29,01,57,8.10
2016,09,29,01,58,8.10
2016,09,29,01,59,8.10
2016,09,29,02,00,8.10
2016,09,29,02,01,8.10
2016,09,29,02,02,8.10
2016,09,29,02,03,8.10
2016,09,29,02,04,8.10
2016,09,29,02,05,8.10
2016,09,29,02,06,8.10
2016,09,29,02,07,8.10
2016,09,29,02,08,8.10
2016,09,29,02,09,8.10
2016,09,29,02,10,8.10
2016,09,29,02,11,8.10
2016,09,29,02,12,8.00
2016,09,29,02,13,8.00
2016,09,29,02,14,8.00
2016,09,29,02,15,7.90
2016,09,29,02,16,7.90
2016,09,29,02,17,7.90
2016,09,29,02,18,7.90
2016,09,29,02,19,7.80
2016,09,29,02,20,7.80
2016,09,29,02,21,7.80
2016,09,29,02,22,7.80
2016,09,29,02,23,7.70
2016,09,29,02,24,7.70
2016,09,29,02,25,7.60
2016,09,29,02,26,7.60
2016,09,29,02,27,7.60
2016,09,29,02,28,7.60
2016,09,29,02,29,7.50
2016,09,29,02,30,7.50
2016,09,29,02,31,7.50
2016,09,29,02,32,7.60
2016,09,29,02,33,7.60
2016,09,29,02,34,7.60
2016,09,29,02,35,7.60
2016,09,29,02,36,7.60
2016,09,29,02,37,7.60
2016,09,29,02,38,7.70
2016,09,29,02,39,7.70
2016,09,29,02,40,7.70
2016,09,29,02,41,7.60
2016,09,29,02,42,7.60
2016,09,29,02,43,7.60
2016,09,29,02,44,7.60
2016,09,29,02,45,7.60
2016,09,29,02,46,7.60
2016,09,29,02,47,7.70
2016,09,29,02,48,7.70
2016,09,29,02,49,7.70
2016,09,29,02,50,7.70
2016,09,29,02,51,7.70
2016,09,29,02,52,7.70
2016,09,29,02,53,7.70
2016,09,29,02,54,7.70
2016,09,29,02,55,7.70
2016,09,29,02,56,7.70
2016,09,29,02,57,7.70
2016,09,29,02,58,7.70
2016,09,29,02,59,7.70
2016,09,29,03,00,7.80
2016,09,29,03,01,7.80
2016,09,29,03,02,7.80
2016,09,29,03,03,7.80
2016,09,29,03,04,7.70
2016,09,29,03,05,7.70
2016,09,29,03,06,7.70
2016,09,29,03,07,7.60
2016,09,29,03,08,7.60
2016,09,29,03,09,7.60
2016,09,29,03,10,7.60
2016,09,29,03,11,7.60
2016,09,29,03,12,7.60
2016,09,29,03,13,7.60
2016,09,29,03,14,7.70
2016,09,29,03,15,7.70
2016,09,29,03,16,7.70
2016,09,29,03,17,7.80
2016,09,29,03,18,7.80
2016,09,29,03,19,7.80
2016,09,29,03,20,7.80
2016,09,29,03,21,7.80
2016,09,29,03,22,7.80
2016,09,29,03,23,7.80
2016,09,29,03,24,7.80
2016,09,29,03,25,7.80
2016,09,29,03,26,7.80
2016,09,29,03,27,7.80
2016,09,29,03,28,7.80
2016,09,29,03,29,7.70
2016,09,29,03,30,7.70
2016,09,29,03,31,7.70
2016,09,29,03,32,7.70
2016,09,29,03,33,7.60
2016,09,29,03,34,7.60
2016,09,29,03,35,7.50
2016,09,29,03,36,7.50
2016,09,29,03,37,7.40
2016,09,29,03,38,7.30
2016,09,29,03,39,7.30
2016,09,29,03,40,7.30
2016,09,29,03,41,7.30
2016,09,29,03,42,7.30
2016,09,29,03,43,7.30
2016,09,29,03,44,7.40
2016,09,29,03,45,7.40
2016,09,29,03,46,7.30
2016,09,29,03,47,7.30
2016,09,29,03,48,7.30
2016,09,29,03,49,7.30
2016,09,29,03,50,7.30
2016,09,29,03,51,7.30
2016,09,29,03,52,7.30
2016,09,29,03,53,7.30
2016,09,29,03,54,7.30
2016,09,29,03,55,7.30
2016,09,29,03,56,7.20
2016,09,29,03,57,7.20
2016,09,29,03,58,7.20
2016,09,29,03,59,7.20
2016,09,29,04,00,7.20
2016,09,29,04,01,7.20
2016,09,29,04,02,7.20
2016,09,29,04,03,7.20
2016,09,29,04,04,7.20
2016,09,29,04,05,7.20
2016,09,29,04,06,7.20
2016,09,29,04,07,7.20
2016,09,29,04,08,7.30
2016,09,29,04,09,7.30
2016,09,29,04,10,7.30
2016,09,29,04,11,7.40
2016,09,29,04,12,7.40
2016,09,29,04,13,7.40
2016,09,29,04,14,7.40
2016,09,29,04,15,7.40
2016,09,29,04,16,7.40
2016,09,29,04,17,7.40
2016,09,29,04,18,7.40
2016,09,29,04,19,7.30
2016,09,29,04,20,7.30
2016,09,29,04,21,7.30
2016,09,29,04,22,7.30
2016,09,29,04,23,7.30
2016,09,29,04,24,7.30
2016,09,29,04,25,7.30
2016,09,29,04,26,7.30
2016,09,29,04,27,7.30
2016,09,29,04,28,7.30
2016,09,29,04,29,7.20
2016,09,29,04,30,7.20
2016,09,29,04,31,7.20
2016,09,29,04,32,7.10
2016,09,29,04,33,7.00
2016,09,29,04,34,6.90
2016,09,29,04,35,6.90
2016,09,29,04,36,6.90
2016,09,29,04,37,6.90
2016,09,29,04,38,6.90
2016,09,29,04,39,7.00
2016,09,29,04,40,7.00
2016,09,29,04,41,7.00
2016,09,29,04,42,7.10
2016,09,29,04,43,7.10
2016,09,29,04,44,7.10
2016,09,29,04,45,7.10
2016,09,29,04,46,7.10
2016,09,29,04,47,7.10
2016,09,29,04,48,7.10
2016,09,29,04,49,7.10
2016,09,29,04,50,7.10
2016,09,29,04,51,7.10
2016,09,29,04,52,7.10
2016,09,29,04,53,7.10
2016,09,29,04,54,7.10
2016,09,29,04,55,7.10
2016,09,29,04,56,7.00
2016,09,29,04,57,7.00
2016,09,29,04,58,7.00
2016,09,29,04,59,6.90
2016,09,29,05,00,6.90
2016,09,29,05,01,6.80
2016,09,29,05,02,6.80
2016,09,29,05,03,6.80
2016,09,29,05,04,6.80
2016,09,29,05,05,6.80
2016,09,29,05,06,6.70
2016,09,29,05,07,6.70
2016,09,29,05,08,6.70
2016,09,29,05,09,6.60
2016,09,29,05,10,6.60
2016,09,29,05,11,6.60
2016,09,29,05,12,6.60
2016,09,29,05,13,6.60
2016,09,29,05,14,6.60
2016,09,29,05,15,6.70
2016,09,29,05,16,6.70
2016,09,29,05,17,6.70
2016,09,29,05,18,6.70
2016,09,29,05,19,6.70
2016,09,29,05,20,6.70
2016,09,29,05,21,6.70
2016,09,29,05,22,6.70
2016,09,29,05,23,6.70
2016,09,29,05,24,6.70
2016,09,29,05,25,6.70
2016,09,29,05,26,6.70
2016,09,29,05,27,6.70
2016,09,29,05,28,6.60
2016,09,29,05,29,6.60
2016,09,29,05,30,6.60
2016,09,29,05,31,6.60
2016,09,29,05,32,6.60
2016,09,29,05,33,6.60
2016,09,29,05,34,6.60
2016,09,29,05,35,6.50
2016,09,29,05,36,6.50
2016,09,29,05,37,6.50
2016,09,29,05,38,6.50
2016,09,29,05,39,6.50
2016,09,29,05,40,6.50
2016,09,29,05,41,6.50
2016,09,29,05,42,6.50
2016,09,29,05,43,6.50
2016,09,29,05,44,6.50
2016,09,29,05,45,6.50
2016,09,29,05,46,6.60
2016,09,29,05,47,6.60
2016,09,29,05,48,6.60
2016,09,29,05,49,6.60
2016,09,29,05,50,6.70
2016,09,29,05,51,6.70
2016,09,29,05,52,6.70
2016,09,29,05,53,6.70
2016,09,29,05,54,6.70
2016,09,29,05,55,6.70
2016,09,29,05,56,6.80
2016,09,29,05,57,6.80
2016,09,29,05,58,6.80
2016,09,29,05,59,6.80
2016,09,29,06,00,6.80
2016,09,29,06,01,6.80
2016,09,29,06,02,6.80
2016,09,29,06,03,6.80
2016,09,29,06,04,6.80
2016,09,29,06,05,6.80
2016,09,29,06,06,6.80
2016,09,29,06,07,6.80
2016,09,29,06,08,6.80
2016,09,29,06,09,6.80
2016,09,29,06,10,6.80
2016,09,29,06,11,6.80
2016,09,29,06,12,6.80
2016,09,29,06,13,6.80
2016,09,29,06,14,6.80
2016,09,29,06,15,6.70
2016,09,29,06,16,6.70
2016,09,29,06,17,6.70
2016,09,29,06,18,6.70
2016,09,29,06,19,6.70
2016,09,29,06,20,6.60
2016,09,29,06,21,6.60
2016,09,29,06,22,6.60
2016,09,29,06,23,6.60
2016,09,29,06,24,6.60
2016,09,29,06,25,6.60
2016,09,29,06,26,6.60
2016,09,29,06,27,6.60
2016,09,29,06,28,6.60
2016,09,29,06,29,6.70
2016,09,29,06,30,6.70
2016,09,29,06,31,6.70
2016,09,29,06,32,6.70
2016,09,29,06,33,6.70
2016,09,29,06,34,6.70
2016,09,29,06,35,6.70
2016,09,29,06,36,6.80
2016,09,29,06,37,6.80
2016,09,29,06,38,6.80
2016,09,29,06,39,6.80
2016,09,29,06,40,6.80
2016,09,29,06,41,6.90
2016,09,29,06,42,6.90
2016,09,29,06,43,7.00
2016,09,29,06,44,7.00
2016,09,29,06,45,7.00
2016,09,29,06,46,7.10
2016,09,29,06,47,7.10
2016,09,29,06,48,7.10
2016,09,29,06,49,7.20
2016,09,29,06,50,7.20
2016,09,29,06,51,7.20
2016,09,29,06,52,7.20
2016,09,29,06,53,7.20
2016,09,29,06,54,7.20
2016,09,29,06,55,7.10
2016,09,29,06,56,7.10
2016,09,29,06,57,7.20
2016,09,29,06,58,7.20
2016,09,29,06,59,7.20
2016,09,29,07,00,7.20
2016,09,29,07,01,7.20
2016,09,29,07,02,7.20
2016,09,29,07,03,7.20
2016,09,29,07,04,7.20
2016,09,29,07,05,7.20
2016,09,29,07,06,7.20
2016,09,29,07,07,7.20
2016,09,29,07,08,7.20
2016,09,29,07,09,7.20
2016,09,29,07,10,7.30
2016,09,29,07,11,7.40
2016,09,29,07,12,7.50
2016,09,29,07,13,7.60
2016,09,29,07,14,7.60
2016,09,29,07,15,7.60
2016,09,29,07,16,7.60
2016,09,29,07,17,7.60
2016,09,29,07,18,7.60
2016,09,29,07,19,7.60
2016,09,29,07,20,7.60
2016,09,29,07,21,7.60
2016,09,29,07,22,7.60
2016,09,29,07,23,7.60
2016,09,29,07,24,7.60
2016,09,29,07,25,7.60
2016,09,29,07,26,7.50
2016,09,29,07,27,7.50
2016,09,29,07,28,7.50
2016,09,29,07,29,7.40
2016,09,29,07,30,7.40
2016,09,29,07,31,7.40
2016,09,29,07,32,7.40
2016,09,29,07,33,7.40
2016,09,29,07,34,7.40
2016,09,29,07,35,7.40
2016,09,29,07,36,7.40
2016,09,29,07,37,7.50
2016,09,29,07,38,7.50
2016,09,29,07,39,7.50
2016,09,29,07,40,7.40
2016,09,29,07,41,7.40
2016,09,29,07,42,7.40
2016,09,29,07,43,7.40
2016,09,29,07,44,7.40
2016,09,29,07,45,7.50
2016,09,29,07,46,7.50
2016,09,29,07,47,7.50
2016,09,29,07,48,7.50
2016,09,29,07,49,7.50
2016,09,29,07,50,7.60
2016,09,29,07,51,7.60
2016,09,29,07,52,7.60
2016,09,29,07,53,7.70
2016,09,29,07,54,7.70
2016,09,29,07,55,7.70
2016,09,29,07,56,7.70
2016,09,29,07,57,7.70
2016,09,29,07,58,7.70
2016,09,29,07,59,7.70
2016,09,29,08,00,7.70
2016,09,29,08,01,7.70
2016,09,29,08,02,7.80
2016,09,29,08,03,7.80
2016,09,29,08,04,7.80
2016,09,29,08,05,7.80
2016,09,29,08,06,7.80
2016,09,29,08,07,7.90
2016,09,29,08,08,7.90
2016,09,29,08,09,7.90
2016,09,29,08,10,7.90
2016,09,29,08,11,7.90
2016,09,29,08,12,7.90
2016,09,29,08,13,7.90
2016,09,29,08,14,7.90
2016,09,29,08,15,7.90
2016,09,29,08,16,7.90
2016,09,29,08,17,7.90
2016,09,29,08,18,7.90
2016,09,29,08,19,7.90
2016,09,29,08,20,7.90
2016,09,29,08,21,7.90
2016,09,29,08,22,7.90
2016,09,29,08,23,8.00
2016,09,29,08,24,8.00
2016,09,29,08,25,8.10
2016,09,29,08,26,8.10
2016,09,29,08,27,8.20
2016,09,29,08,28,8.20
2016,09,29,08,29,8.20
2016,09,29,08,30,8.30
2016,09,29,08,31,8.30
2016,09,29,08,32,8.40
2016,09,29,08,33,8.40
2016,09,29,08,34,8.40
2016,09,29,08,35,8.50
2016,09,29,08,36,8.50
2016,09,29,08,37,8.50
2016,09,29,08,38,8.50
2016,09,29,08,39,8.60
2016,09,29,08,40,8.60
2016,09,29,08,41,8.60
2016,09,29,08,42,8.60
2016,09,29,08,43,8.60
2016,09,29,08,44,8.60
2016,09,29,08,45,8.60
2016,09,29,08,46,8.60
2016,09,29,08,47,8.60
2016,09,29,08,48,8.60
2016,09,29,08,49,8.60
2016,09,29,08,50,8.60
2016,09,29,08,51,8.60
2016,09,29,08,52,8.50
2016,09,29,08,53,8.50
2016,09,29,08,54,8.50
2016,09,29,08,55,8.50
2016,09,29,08,56,8.60
2016,09,29,08,57,8.60
2016,09,29,08,58,8.60
2016,09,29,08,59,8.60
2016,09,29,09,00,8.70
2016,09,29,09,01,8.70
2016,09,29,09,02,8.80
2016,09,29,09,03,8.80
2016,09,29,09,04,8.90
2016,09,29,09,05,9.00
2016,09,29,09,06,9.00
2016,09,29,09,07,9.10
2016,09,29,09,08,9.20
2016,09,29,09,09,9.30
2016,09,29,09,10,9.30
2016,09,29,09,11,9.50
2016,09,29,09,12,9.50
2016,09,29,09,13,9.60
2016,09,29,09,14,9.70
2016,09,29,09,15,9.90
2016,09,29,09,16,10.00
2016,09,29,09,17,10.10
2016,09,29,09,18,10.20
2016,09,29,09,19,10.30
2016,09,29,09,20,10.40
2016,09,29,09,21,10.50
2016,09,29,09,22,10.60
2016,09,29,09,23,10.80
2016,09,29,09,24,10.90
2016,09,29,09,25,11.00
2016,09,29,09,26,11.10
2016,09,29,09,27,11.20
2016,09,29,09,28,11.30
2016,09,29,09,29,11.40
2016,09,29,09,30,11.40
2016,09,29,09,31,11.60
2016,09,29,09,32,11.70
2016,09,29,09,33,11.70
2016,09,29,09,34,11.80
2016,09,29,09,35,11.90
2016,09,29,09,36,12.00
2016,09,29,09,37,12.10
2016,09,29,09,38,12.10
2016,09,29,09,39,12.10
2016,09,29,09,40,12.00
2016,09,29,09,41,11.90
2016,09,29,09,42,11.90
2016,09,29,09,43,11.80
2016,09,29,09,44,11.80
2016,09,29,09,45,11.80
2016,09,29,09,46,11.90
2016,09,29,09,47,11.90
2016,09,29,09,48,12.00
2016,09,29,09,49,12.00
2016,09,29,09,50,12.10
2016,09,29,09,51,12.10
2016,09,29,09,52,12.10
2016,09,29,09,53,12.10
2016,09,29,09,54,12.10
2016,09,29,09,55,12.20
2016,09,29,09,56,12.20
2016,09,29,09,57,12.20
2016,09,29,09,58,12.30
2016,09,29,09,59,12.30
2016,09,29,10,00,12.30
2016,09,29,10,01,12.30
2016,09,29,10,02,12.30
2016,09,29,10,03,12.40
2016,09,29,10,04,12.40
2016,09,29,10,05,12.50
2016,09,29,10,06,12.60
2016,09,29,10,07,12.60
2016,09,29,10,08,12.70
2016,09,29,10,09,12.70
2016,09,29,10,10,12.80
2016,09,29,10,11,12.80
2016,09,29,10,12,12.90
2016,09,29,10,13,12.90
2016,09,29,10,14,12.90
2016,09,29,10,15,12.90
2016,09,29,10,16,12.90
2016,09,29,10,17,12.90
2016,09,29,10,18,12.90
2016,09,29,10,19,12.90
2016,09,29,10,20,12.90
2016,09,29,10,21,12.80
2016,09,29,10,22,12.80
2016,09,29,10,23,12.80
2016,09,29,10,24,12.80
2016,09,29,10,25,12.80
2016,09,29,10,26,12.80
2016,09,29,10,27,12.80
2016,09,29,10,28,12.90
2016,09,29,10,29,12.90
2016,09,29,10,30,12.90
2016,09,29,10,31,12.90
2016,09,29,10,32,12.90
2016,09,29,10,33,12.90
2016,09,29,10,34,12.90
2016,09,29,10,35,12.90
2016,09,29,10,36,12.80
2016,09,29,10,37,12.80
2016,09,29,10,38,12.80
2016,09,29,10,39,12.80
2016,09,29,10,40,12.80
2016,09,29,10,41,12.80
2016,09,29,10,42,12.80
2016,09,29,10,43,12.80
2016,09,29,10,44,12.90
2016,09,29,10,45,12.90
2016,09,29,10,46,12.90
2016,09,29,10,47,13.00
2016,09,29,10,48,13.10
2016,09,29,10,49,13.10
2016,09,29,10,50,13.20
2016,09,29,10,51,13.30
2016,09,29,10,52,13.30
2016,09,29,10,53,13.30
2016,09,29,10,54,13.40
2016,09,29,10,55,13.50
2016,09,29,10,56,13.60
2016,09,29,10,57,13.60
2016,09,29,10,58,13.70
2016,09,29,10,59,13.80
2016,09,29,11,00,13.90
2016,09,29,11,01,14.00
2016,09,29,11,02,14.00
2016,09,29,11,03,14.10
2016,09,29,11,04,14.20
2016,09,29,11,05,14.20
2016,09,29,11,06,14.30
2016,09,29,11,07,14.30
2016,09,29,11,08,14.40
2016,09,29,11,09,14.50
2016,09,29,11,10,14.60
2016,09,29,11,11,14.60
2016,09,29,11,12,14.70
2016,09,29,11,13,14.70
2016,09,29,11,14,14.70
2016,09,29,11,15,14.70
2016,09,29,11,16,14.70
2016,09,29,11,17,14.70
2016,09,29,11,18,14.70
2016,09,29,11,19,14.70
2016,09,29,11,20,14.70
2016,09,29,11,21,15.00
2016,09,29,11,22,15.00
2016,09,29,11,23,15.00
2016,09,29,11,24,15.10
2016,09,29,11,25,15.30
2016,09,29,11,26,15.40
2016,09,29,11,27,15.50
2016,09,29,11,28,15.60
2016,09,29,11,29,15.70
2016,09,29,11,30,15.70
2016,09,29,11,31,15.60
2016,09,29,11,32,15.60
2016,09,29,11,33,15.50
2016,09,29,11,34,15.50
2016,09,29,11,35,15.50
2016,09,29,11,36,15.50
2016,09,29,11,37,15.50
2016,09,29,11,38,15.50
2016,09,29,11,39,15.60
2016,09,29,11,40,15.60
2016,09,29,11,41,15.70
2016,09,29,11,42,15.70
2016,09,29,11,43,15.70
2016,09,29,11,44,15.70
2016,09,29,11,45,15.70
2016,09,29,11,46,15.80
2016,09,29,11,47,15.80
2016,09,29,11,48,15.80
2016,09,29,11,49,15.80
2016,09,29,11,50,15.80
2016,09,29,11,51,15.90
2016,09,29,11,52,15.80
2016,09,29,11,53,15.80
2016,09,29,11,54,15.90
2016,09,29,11,55,16.00
2016,09,29,11,56,16.10
2016,09,29,11,57,16.20
2016,09,29,11,58,16.30
2016,09,29,11,59,16.50
2016,09,29,12,00,16.50
2016,09,29,12,01,16.50
2016,09,29,12,02,16.40
2016,09,29,12,03,16.20
2016,09,29,12,04,16.00
2016,09,29,12,05,15.90
2016,09,29,12,06,15.90
2016,09,29,12,07,15.80
2016,09,29,12,08,15.60
2016,09,29,12,09,15.40
2016,09,29,12,10,15.30
2016,09,29,12,11,15.30
2016,09,29,12,12,15.20
2016,09,29,12,13,15.20
2016,09,29,12,14,15.20
2016,09,29,12,15,15.30
2016,09,29,12,16,15.30
2016,09,29,12,17,15.40
2016,09,29,12,18,15.40
2016,09,29,12,19,15.50
2016,09,29,12,20,15.50
2016,09,29,12,21,15.60
2016,09,29,12,22,15.60
2016,09,29,12,23,15.50
2016,09,29,12,24,15.50
2016,09,29,12,25,15.40
2016,09,29,12,26,15.50
2016,09,29,12,27,15.50
2016,09,29,12,28,15.50
2016,09,29,12,29,15.50
2016,09,29,12,30,15.50
2016,09,29,12,31,15.40
2016,09,29,12,32,15.40
2016,09,29,12,33,15.40
2016,09,29,12,34,15.40
2016,09,29,12,35,15.30
2016,09,29,12,36,15.30
2016,09,29,12,37,15.10
2016,09,29,12,38,15.10
2016,09,29,12,39,15.10
2016,09,29,12,40,15.00
2016,09,29,12,41,15.00
2016,09,29,12,42,15.20
2016,09,29,12,43,15.30
2016,09,29,12,44,15.50
2016,09,29,12,45,15.50
2016,09,29,12,46,15.50
2016,09,29,12,47,15.60
2016,09,29,12,48,15.70
2016,09,29,12,49,15.70
2016,09,29,12,50,15.70
2016,09,29,12,51,15.70
2016,09,29,12,52,15.70
2016,09,29,12,53,15.70
2016,09,29,12,54,15.70
2016,09,29,12,55,15.70
2016,09,29,12,56,15.70
2016,09,29,12,57,15.80
2016,09,29,12,58,15.80
2016,09,29,12,59,15.80
2016,09,29,13,00,15.80
2016,09,29,13,01,15.80
2016,09,29,13,02,15.80
2016,09,29,13,03,15.80
2016,09,29,13,04,15.80
2016,09,29,13,05,15.80
2016,09,29,13,06,15.80
2016,09,29,13,07,15.80
2016,09,29,13,08,15.80
2016,09,29,13,09,15.80
2016,09,29,13,10,15.80
2016,09,29,13,11,15.70
2016,09,29,13,12,15.70
2016,09,29,13,13,15.70
2016,09,29,13,14,15.70
2016,09,29,13,15,15.70
2016,09,29,13,16,15.80
2016,09,29,13,17,15.80
2016,09,29,13,18,15.80
2016,09,29,13,19,15.80
2016,09,29,13,20,15.80
2016,09,29,13,21,15.90
2016,09,29,13,22,16.00
2016,09,29,13,23,16.10
2016,09,29,13,24,16.20
2016,09,29,13,25,16.20
2016,09,29,13,26,16.30
2016,09,29,13,27,16.30
2016,09,29,13,28,16.30
2016,09,29,13,29,16.20
2016,09,29,13,30,16.20
2016,09,29,13,31,16.20
2016,09,29,13,32,16.10
2016,09,29,13,33,16.10
2016,09,29,13,34,16.00
2016,09,29,13,35,15.90
2016,09,29,13,36,15.90
2016,09,29,13,37,16.00
2016,09,29,13,38,16.00
2016,09,29,13,39,16.10
2016,09,29,13,40,16.10
2016,09,29,13,41,16.20
2016,09,29,13,42,16.20
2016,09,29,13,43,16.20
2016,09,29,13,44,16.20
2016,09,29,13,45,16.20
2016,09,29,13,46,16.20
2016,09,29,13,47,16.20
2016,09,29,13,48,16.20
2016,09,29,13,49,16.10
2016,09,29,13,50,16.10
2016,09,29,13,51,16.10
2016,09,29,13,52,16.10
2016,09,29,13,53,16.10
2016,09,29,13,54,16.00
2016,09,29,13,55,16.00
2016,09,29,13,56,16.00
2016,09,29,13,57,15.90
2016,09,29,13,58,15.90
2016,09,29,13,59,15.90
2016,09,29,14,00,16.00
2016,09,29,14,01,16.10
2016,09,29,14,02,16.10
2016,09,29,14,03,16.20
2016,09,29,14,04,16.30
2016,09,29,14,05,16.30
2016,09,29,14,06,16.30
2016,09,29,14,07,16.20
2016,09,29,14,08,16.20
2016,09,29,14,09,16.20
2016,09,29,14,10,16.30
2016,09,29,14,11,16.30
2016,09,29,14,12,16.30
2016,09,29,14,13,16.30
2016,09,29,14,14,16.40
2016,09,29,14,15,16.40
2016,09,29,14,16,16.50
2016,09,29,14,17,16.60
2016,09,29,14,18,16.60
2016,09,29,14,19,16.70
2016,09,29,14,20,16.60
2016,09,29,14,21,16.60
2016,09,29,14,22,16.60
2016,09,29,14,23,16.70
2016,09,29,14,24,16.80
2016,09,29,14,25,16.80
2016,09,29,14,26,16.80
2016,09,29,14,27,16.80
2016,09,29,14,28,16.90
2016,09,29,14,29,16.90
2016,09,29,14,30,16.90
2016,09,29,14,31,16.90
2016,09,29,14,32,16.90
2016,09,29,14,33,16.90
2016,09,29,14,34,16.90
2016,09,29,14,35,16.90
2016,09,29,14,36,16.80
2016,09,29,14,37,16.80
2016,09,29,14,38,16.70
2016,09,29,14,39,16.70
2016,09,29,14,40,16.70
2016,09,29,14,41,16.70
2016,09,29,14,42,16.80
2016,09,29,14,43,16.80
2016,09,29,14,44,16.80
2016,09,29,14,45,16.70
2016,09,29,14,46,16.70
2016,09,29,14,47,16.70
2016,09,29,14,48,16.70
2016,09,29,14,49,16.70
2016,09,29,14,50,16.70
2016,09,29,14,51,16.70
2016,09,29,14,52,16.70
2016,09,29,14,53,16.70
2016,09,29,14,54,16.70
2016,09,29,14,55,16.80
2016,09,29,14,56,16.80
2016,09,29,14,57,16.90
2016,09,29,14,58,17.00
2016,09,29,14,59,17.00
2016,09,29,15,00,17.00
2016,09,29,15,01,17.00
2016,09,29,15,02,17.00
2016,09,29,15,03,17.00
2016,09,29,15,04,17.10
2016,09,29,15,05,17.10
2016,09,29,15,06,17.20
2016,09,29,15,07,17.20
2016,09,29,15,08,17.20
2016,09,29,15,09,17.20
2016,09,29,15,10,17.20
2016,09,29,15,11,17.10
2016,09,29,15,12,17.10
2016,09,29,15,13,17.10
2016,09,29,15,14,17.00
2016,09,29,15,15,17.00
2016,09,29,15,16,16.90
2016,09,29,15,17,16.90
2016,09,29,15,18,16.80
2016,09,29,15,19,16.80
2016,09,29,15,20,16.70
2016,09,29,15,21,16.70
2016,09,29,15,22,16.70
2016,09,29,15,23,16.70
2016,09,29,15,24,16.70
2016,09,29,15,25,16.70
2016,09,29,15,26,16.60
2016,09,29,15,27,16.60
2016,09,29,15,28,16.60
2016,09,29,15,29,16.60
2016,09,29,15,30,16.60
2016,09,29,15,31,16.60
2016,09,29,15,32,16.70
2016,09,29,15,33,16.70
2016,09,29,15,34,16.70
2016,09,29,15,35,16.70
2016,09,29,15,36,16.70
2016,09,29,15,37,16.70
2016,09,29,15,38,16.70
2016,09,29,15,39,16.70
2016,09,29,15,40,16.70
2016,09,29,15,41,16.60
2016,09,29,15,42,16.60
2016,09,29,15,43,16.60
2016,09,29,15,44,16.50
2016,09,29,15,45,16.50
2016,09,29,15,46,16.50
2016,09,29,15,47,16.50
2016,09,29,15,48,16.50
2016,09,29,15,49,16.40
2016,09,29,15,50,16.50
2016,09,29,15,51,16.50
2016,09,29,15,52,16.50
2016,09,29,15,53,16.40
2016,09,29,15,54,16.50
2016,09,29,15,55,16.50
2016,09,29,15,56,16.60
2016,09,29,15,57,16.60
2016,09,29,15,58,16.50
2016,09,29,15,59,16.40
2016,09,29,16,00,16.40
2016,09,29,16,01,16.30
2016,09,29,16,02,16.30
2016,09,29,16,03,16.30
2016,09,29,16,04,16.30
2016,09,29,16,05,16.30
2016,09,29,16,06,16.40
2016,09,29,16,07,16.40
2016,09,29,16,08,16.30
2016,09,29,16,09,16.30
2016,09,29,16,10,16.30
2016,09,29,16,11,16.20
2016,09,29,16,12,16.20
2016,09,29,16,13,16.20
2016,09,29,16,14,16.20
2016,09,29,16,15,16.10
2016,09,29,16,16,16.10
2016,09,29,16,17,16.10
2016,09,29,16,18,16.10
2016,09,29,16,19,16.10
2016,09,29,16,20,16.20
2016,09,29,16,21,16.20
2016,09,29,16,22,16.20
2016,09,29,16,23,16.20
2016,09,29,16,24,16.20
2016,09,29,16,25,16.20
2016,09,29,16,26,16.20
2016,09,29,16,27,16.20
2016,09,29,16,28,16.20
2016,09,29,16,29,16.20
2016,09,29,16,30,16.20
2016,09,29,16,31,16.20
2016,09,29,16,32,16.10
2016,09,29,16,33,16.10
2016,09,29,16,34,16.10
2016,09,29,16,35,16.10
2016,09,29,16,36,16.10
2016,09,29,16,37,16.10
2016,09,29,16,38,16.10
2016,09,29,16,39,16.10
2016,09,29,16,40,16.10
2016,09,29,16,41,16.00
2016,09,29,16,42,16.00
2016,09,29,16,43,16.00
2016,09,29,16,44,15.90
2016,09,29,16,45,15.90
2016,09,29,16,46,15.90
2016,09,29,16,47,15.90
2016,09,29,16,48,15.80
2016,09,29,16,49,15.80
2016,09,29,16,50,15.80
2016,09,29,16,51,15.80
2016,09,29,16,52,15.80
2016,09,29,16,53,15.80
2016,09,29,16,54,15.70
2016,09,29,16,55,15.70
2016,09,29,16,56,15.70
2016,09,29,16,57,15.70
2016,09,29,16,58,15.80
2016,09,29,16,59,15.80
2016,09,29,17,00,15.80
2016,09,29,17,01,15.80
2016,09,29,17,02,15.80
2016,09,29,17,03,15.80
2016,09,29,17,04,15.80
2016,09,29,17,05,15.80
2016,09,29,17,06,15.80
2016,09,29,17,07,15.80
2016,09,29,17,08,15.80
2016,09,29,17,09,15.80
2016,09,29,17,10,15.80
2016,09,29,17,11,15.80
2016,09,29,17,12,15.80
2016,09,29,17,13,15.80
2016,09,29,17,14,15.80
2016,09,29,17,15,15.80
2016,09,29,17,16,15.80
2016,09,29,17,17,15.80
2016,09,29,17,18,15.80
2016,09,29,17,19,15.80
2016,09,29,17,20,15.80
2016,09,29,17,21,15.80
2016,09,29,17,22,15.70
2016,09,29,17,23,15.70
2016,09,29,17,24,15.60
2016,09,29,17,25,15.60
2016,09,29,17,26,15.60
2016,09,29,17,27,15.60
2016,09,29,17,28,15.50
2016,09,29,17,29,15.50
2016,09,29,17,30,15.50
2016,09,29,17,31,15.50
2016,09,29,17,32,15.50
2016,09,29,17,33,15.50
2016,09,29,17,34,15.50
2016,09,29,17,35,15.40
2016,09,29,17,36,15.40
2016,09,29,17,37,15.40
2016,09,29,17,38,15.40
2016,09,29,17,39,15.40
2016,09,29,17,40,15.30
2016,09,29,17,41,15.30
2016,09,29,17,42,15.30
2016,09,29,17,43,15.30
2016,09,29,17,44,15.30
2016,09,29,17,45,15.30
2016,09,29,17,46,15.30
2016,09,29,17,47,15.30
2016,09,29,17,48,15.30
2016,09,29,17,49,15.40
2016,09,29,17,50,15.40
2016,09,29,17,51,15.40
2016,09,29,17,52,15.30
2016,09,29,17,53,15.30
2016,09,29,17,54,15.30
2016,09,29,17,55,15.30
2016,09,29,17,56,15.20
2016,09,29,17,57,15.20